• In Czech Republic
  • List of Countries
  • For 7 days
  • Water Temperature
  • Satellite Maps
  • Weather Map
  • Weather Widgets
  • user-avatar
    Login

    Hourly Weather Bolshie Lipyagi

    Today, 26 September, Wednesday

    Time Temperature Precipitation Wind Pressure Humidity
    00:00 +7°C° 0 mm 3 mps 749 mmHg 86%
    01:00 +7°C° 0 mm 3 mps 749 mmHg 87%
    02:00 +5°C° 0 mm 3 mps 750 mmHg 88%
    03:00 +5°C° 0 mm 3 mps 750 mmHg 89%
    04:00 +5°C° 0 mm 3 mps 751 mmHg 89%
    05:00 +4°C° 0 mm 3 mps 751 mmHg 90%
    06:00 +4°C° 0 mm 3 mps 752 mmHg 91%
    07:00 +5°C° 0 mm 3 mps 752 mmHg 85%
    08:00 +7°C° 0 mm 3 mps 753 mmHg 79%
    09:00 +8°C° 0 mm 4 mps 753 mmHg 73%
    10:00 +10°C° 0 mm 4 mps 753 mmHg 68%
    11:00 +11°C° 0 mm 4 mps 754 mmHg 63%
    12:00 +12°C° 0 mm 4 mps 754 mmHg 58%
    13:00 +12°C° 0 mm 4 mps 754 mmHg 57%
    14:00 +12°C° 0 mm 4 mps 754 mmHg 55%
    15:00 +12°C° 0 mm 4 mps 755 mmHg 54%
    16:00 +11°C° 0 mm 3 mps 755 mmHg 58%
    17:00 +10°C° 0 mm 3 mps 755 mmHg 62%
    18:00 +9°C° 0 mm 2 mps 755 mmHg 67%
    19:00 +8°C° 0 mm 2 mps 755 mmHg 69%
    20:00 +7°C° 0 mm 2 mps 755 mmHg 71%
    21:00 +7°C° 0 mm 2 mps 756 mmHg 74%
    22:00 +6°C° 0 mm 2 mps 756 mmHg 75%
    23:00 +6°C° 0 mm 2 mps 755 mmHg 76%

    Tomorrow, 27 September, Thursday

    Time Temperature Precipitation Wind Pressure Humidity
    00:00 +5°C° 0 mm 3 mps 755 mmHg 77%
    01:00 +4°C° 0 mm 3 mps 755 mmHg 77%
    02:00 +4°C° 0 mm 4 mps 754 mmHg 78%
    03:00 +4°C° 0 mm 4 mps 754 mmHg 78%
    04:00 +3°C° 0 mm 5 mps 753 mmHg 76%
    05:00 +3°C° 0 mm 5 mps 753 mmHg 74%
    06:00 +3°C° 0 mm 6 mps 752 mmHg 72%
    07:00 +4°C° 0 mm 7 mps 752 mmHg 67%
    08:00 +5°C° 0 mm 8 mps 751 mmHg 63%
    09:00 +6°C° 0 mm 9 mps 750 mmHg 58%
    10:00 +6°C° 0.3 mm 9 mps 750 mmHg 58%
    11:00 +6°C° 0.3 mm 10 mps 749 mmHg 59%
    12:00 +6°C° 0.3 mm 10 mps 749 mmHg 59%
    13:00 +6°C° 0.4 mm 10 mps 748 mmHg 62%
    14:00 +6°C° 0.4 mm 10 mps 748 mmHg 66%
    15:00 +6°C° 0.4 mm 10 mps 747 mmHg 69%
    16:00 +6°C° 0.2 mm 9 mps 747 mmHg 72%
    17:00 +6°C° 0.2 mm 9 mps 747 mmHg 75%
    18:00 +6°C° 0.2 mm 8 mps 747 mmHg 78%
    19:00 +6°C° 0 mm 7 mps 747 mmHg 80%
    20:00 +6°C° 0 mm 7 mps 747 mmHg 82%
    21:00 +8°C° 0 mm 6 mps 748 mmHg 84%
    22:00 +7°C° 0 mm 6 mps 748 mmHg 87%
    23:00 +7°C° 0 mm 6 mps 748 mmHg 89%

    Day after tomorrow, 28 September, Friday

    Time Temperature Precipitation Wind Pressure Humidity
    00:00 +7°C° 0 mm 6 mps 748 mmHg 91%
    01:00 +7°C° 0 mm 5 mps 748 mmHg 92%
    02:00 +6°C° 0 mm 5 mps 748 mmHg 93%
    03:00 +6°C° 0 mm 5 mps 748 mmHg 95%
    04:00 +6°C° 0 mm 5 mps 748 mmHg 95%
    05:00 +6°C° 0 mm 5 mps 748 mmHg 95%
    06:00 +6°C° 0 mm 5 mps 748 mmHg 95%
    07:00 +8°C° 0 mm 6 mps 748 mmHg 90%
    08:00 +9°C° 0 mm 6 mps 748 mmHg 86%
    09:00 +10°C° 0 mm 7 mps 748 mmHg 81%
    10:00 +11°C° 0 mm 8 mps 747 mmHg 75%
    11:00 +13°C° 0 mm 8 mps 747 mmHg 68%
    12:00 +15°C° 0 mm 9 mps 747 mmHg 62%
    13:00 +16°C° 0 mm 9 mps 746 mmHg 60%
    14:00 +16°C° 0 mm 9 mps 746 mmHg 58%
    15:00 +17°C° 0 mm 9 mps 746 mmHg 55%
    16:00 +16°C° 0 mm 8 mps 745 mmHg 59%
    17:00 +15°C° 0 mm 7 mps 745 mmHg 63%
    18:00 +15°C° 0 mm 6 mps 745 mmHg 66%
    19:00 +15°C° 0 mm 6 mps 745 mmHg 68%
    20:00 +15°C° 0 mm 6 mps 745 mmHg 69%
    21:00 +15°C° 0 mm 7 mps 745 mmHg 70%
    22:00 +14°C° 0.1 mm 6 mps 745 mmHg 74%
    23:00 +14°C° 0.1 mm 6 mps 746 mmHg 77%

    29 September, Saturday

    Time Temperature Precipitation Wind Pressure Humidity
    00:00 +14°C° 0.1 mm 6 mps 746 mmHg 81%
    01:00 +13°C° 0 mm 5 mps 747 mmHg 81%
    02:00 +12°C° 0 mm 4 mps 747 mmHg 80%
    03:00 +11°C° 0 mm 3 mps 748 mmHg 80%
    04:00 +10°C° 0 mm 3 mps 749 mmHg 79%
    05:00 +9°C° 0 mm 3 mps 749 mmHg 78%
    06:00 +8°C° 0 mm 3 mps 750 mmHg 77%
    07:00 +9°C° 0 mm 3 mps 750 mmHg 71%
    08:00 +9°C° 0 mm 3 mps 751 mmHg 64%
    09:00 +10°C° 0 mm 3 mps 751 mmHg 57%
    10:00 +11°C° 0 mm 3 mps 751 mmHg 51%
    11:00 +13°C° 0 mm 2 mps 751 mmHg 45%
    12:00 +14°C° 0 mm 2 mps 752 mmHg 39%
    13:00 +14°C° 0 mm 2 mps 752 mmHg 38%
    14:00 +15°C° 0 mm 2 mps 752 mmHg 37%
    15:00 +15°C° 0 mm 2 mps 752 mmHg 35%
    16:00 +14°C° 0 mm 2 mps 752 mmHg 39%
    17:00 +13°C° 0 mm 2 mps 752 mmHg 42%
    18:00 +12°C° 0 mm 2 mps 752 mmHg 45%
    19:00 +12°C° 0 mm 2 mps 752 mmHg 48%
    20:00 +10°C° 0 mm 2 mps 753 mmHg 50%
    21:00 +9°C° 0 mm 2 mps 753 mmHg 53%
    22:00 +9°C° 0 mm 2 mps 753 mmHg 54%
    23:00 +9°C° 0 mm 2 mps 753 mmHg 56%

    30 September, Sunday

    Time Temperature Precipitation Wind Pressure Humidity
    00:00 +9°C° 0 mm 2 mps 753 mmHg 57%
    01:00 +9°C° 0 mm 3 mps 754 mmHg 58%
    02:00 +9°C° 0 mm 3 mps 754 mmHg 60%
    03:00 +9°C° 0 mm 3 mps 754 mmHg 61%
    04:00 +8°C° 0 mm 3 mps 754 mmHg 64%
    05:00 +8°C° 0 mm 2 mps 755 mmHg 67%
    06:00 +7°C° 0 mm 2 mps 755 mmHg 70%
    07:00 +8°C° 0 mm 2 mps 755 mmHg 67%
    08:00 +9°C° 0 mm 3 mps 756 mmHg 64%
    09:00 +10°C° 0 mm 3 mps 756 mmHg 61%
    10:00 +11°C° 0 mm 3 mps 756 mmHg 56%
    11:00 +13°C° 0 mm 2 mps 756 mmHg 51%
    12:00 +14°C° 0 mm 2 mps 756 mmHg 46%
    13:00 +14°C° 0 mm 2 mps 756 mmHg 44%
    14:00 +14°C° 0 mm 2 mps 756 mmHg 42%
    15:00 +14°C° 0 mm 2 mps 755 mmHg 41%
    16:00 +13°C° 0 mm 2 mps 756 mmHg 44%
    17:00 +12°C° 0 mm 2 mps 756 mmHg 48%
    18:00 +10°C° 0 mm 2 mps 756 mmHg 52%
    19:00 +9°C° 0 mm 2 mps 756 mmHg 53%
    20:00 +9°C° 0 mm 2 mps 756 mmHg 54%
    21:00 +9°C° 0 mm 1 mps 756 mmHg 56%
    22:00 +9°C° 0 mm 1 mps 756 mmHg 57%
    23:00 +8°C° 0 mm 1 mps 756 mmHg 58%

    1 October, Monday

    Time Temperature Precipitation Wind Pressure Humidity
    00:00 +8°C° 0 mm 1 mps 756 mmHg 59%
    01:00 +7°C° 0 mm 1 mps 756 mmHg 60%
    02:00 +7°C° 0 mm 1 mps 756 mmHg 62%
    03:00 +7°C° 0 mm 1 mps 756 mmHg 63%
    04:00 +7°C° 0 mm 1 mps 756 mmHg 65%
    05:00 +7°C° 0 mm 1 mps 756 mmHg 67%
    06:00 +5°C° 0 mm 2 mps 756 mmHg 69%
    07:00 +7°C° 0 mm 2 mps 756 mmHg 66%
    08:00 +8°C° 0 mm 2 mps 756 mmHg 63%
    09:00 +10°C° 0 mm 2 mps 756 mmHg 59%
    10:00 +11°C° 0 mm 3 mps 756 mmHg 55%
    11:00 +12°C° 0 mm 3 mps 756 mmHg 50%
    12:00 +14°C° 0 mm 3 mps 756 mmHg 46%
    13:00 +14°C° 0 mm 3 mps 756 mmHg 45%
    14:00 +14°C° 0 mm 3 mps 755 mmHg 45%
    15:00 +14°C° 0 mm 3 mps 755 mmHg 44%
    16:00 +14°C° 0 mm 2 mps 755 mmHg 48%
    17:00 +13°C° 0 mm 2 mps 755 mmHg 52%
    18:00 +12°C° 0 mm 2 mps 755 mmHg 56%
    19:00 +10°C° 0 mm 2 mps 755 mmHg 57%
    20:00 +9°C° 0 mm 2 mps 755 mmHg 58%
    21:00 +9°C° 0 mm 2 mps 755 mmHg 59%
    22:00 +8°C° 0 mm 2 mps 755 mmHg 60%
    23:00 +8°C° 0 mm 2 mps 755 mmHg 60%
    Show more